Regional Weather Roundup
Issued by NWS Goodland, KS

Home | Current Version | Previous Version | Graphics & Text | Print | Product List | Glossary On
Versions: 1 2 3 4 5 6 7 8 9 10 11 12 13 14 15 16 17 18 19 20 21 22 23 24 25 26 27 28 29 30 31 32 33 34 35 36 37 38 39 40 41 42 43 44 45 46 47 48 49 50
000
ASUS43 KGLD 271259
RWRGLD

GOODLAND FORECAST AREA HOURLY WEATHER ROUNDUP
NATIONAL WEATHER SERVICE GOODLAND KS
700 AM MDT FRI MAY 27 2016

...OFFICIAL OBSERVATIONS...

CITY           SKY/WX    TMP DP  RH WIND       PRES   REMARKS
GOODLAND KS    CLOUDY    52  50  93 E6        29.73F
HILL CITY KS   CLOUDY    58  56  93 N5        29.71S
IMPERIAL NEB   CLOUDY    54  51  90 NE6       29.78R FOG
MCCOOK NEB     CLOUDY    58  55  90 NE7       29.75R
AKRON CO       LGT RAIN  48  46  93 N22       29.79R FOG
BURLINGTON CO  SUNNY     51  47  86 W5        29.73F
LIMON CO       LGT RAIN  44  42  93 NW22G30   29.78S FOG
$$

...UNOFFICIAL OBSERVATIONS...

CITY           SKY/WX    TMP DP  RH WIND       PRES   REMARKS
GOVE KS          N/A     57  32  39 MISG        N/A
LENORA KS        N/A     56  32  40 MISG        N/A
KIT CARSON CO    N/A     51  47  85 MISG        N/A
YUMA CO          N/A     51  49  95 NE9         N/A
$$



USA.gov is the U.S. government's official web portal to all federal, state and local government web resources and services.